Flag for Denmark Weather past 2 weeks in Skagen, Denmark

Now
39 °F

Mostly cloudy.


Feels Like: 35 °F
Forecast: 41 / 43 °F
Wind: 6 mph from West

Location: Gothenburg / Save

Current Time: Jan 26, 2015 at 8:38:25 PM

Latest Report: Jan 26, 2015 at 8:20 PM


Visibility: N/A

Pressure: 29.65 "Hg

Humidity: 93%

Dew point: 37 °F

Location of SkagenLocation

Historic Weather in Skagen — Graph

°F

Skagen temperature yesterday

Maximum temperature yesterday: 36 °F (at 12:20 AM)
Minimum temperature yesterday: 18 °F (at 9:20 AM)
Average temperature yesterday: 27 °F

Past Weeks' High & Low Weather Summary

 TemperatureHumidityPressure
High45 °F (Jan 12, 4:50 PM)100% (Jan 12, 4:20 PM)30.21 "Hg (Jan 12, 4:20 PM)
Low18 °F (Jan 25, 9:20 AM)71% (Jan 13, 2:20 AM)29.09 "Hg (Jan 16, 12:50 AM)
Average35 °F88%29.72 "Hg
* Reported Jan 11 7:20 PM — Jan 26 7:20 PM, Skagen, Weather by CustomWeather, © 2014

Note: Actual official high and low records may vary slightly from our data, if they occured in-between our weather recording intervals... More about our weather records

Advertising

Skagen weather history for previous 24 hours

 ConditionsComfort  
Time TempWeatherWind HumidityBarometerVisibility
7:20 PM
Jan 26
39 °FPartly cloudy.2 mph93%29.65 "HgN/A
6:50 PM37 °FLight rain. Partly cloudy.2 mph100%29.65 "Hg4 mi
6:20 PM37 °FLight rain. Passing clouds.6 mph100%29.65 "Hg4 mi
5:50 PM37 °FLight rain. Low clouds.5 mph100%29.65 "Hg4 mi
5:20 PM37 °FLight rain. Low clouds.6 mph100%29.65 "Hg4 mi
4:20 PM37 °FLight rain. Low clouds.8 mph100%29.65 "Hg5 mi
3:50 PM37 °FLight rain. Low clouds.12 mph100%29.68 "Hg4 mi
3:20 PM37 °FRain. Low clouds.14 mph100%29.68 "Hg5 mi
2:50 PM37 °FLight rain. Low clouds.15 mph100%29.68 "Hg4 mi
2:20 PM37 °FLight rain. Low clouds.16 mph100%29.71 "Hg2 mi
1:50 PM37 °FRain. Mostly cloudy.20 mph100%29.71 "Hg2 mi
1:20 PM37 °FLight rain. Cloudy.18 mph100%29.71 "Hg2 mi
12:50 PM37 °FLight rain. Cloudy.21 mph100%29.74 "Hg1 mi
12:20 PM37 °FLight rain. Partly sunny.21 mph100%29.74 "Hg1 mi
11:50 AM37 °FCloudy.22 mph100%29.77 "Hg1 mi
11:20 AM37 °FMostly cloudy.22 mph93%29.77 "Hg1 mi
10:50 AM37 °FFog.22 mph93%29.80 "Hg1 mi
10:20 AM37 °FFog.17 mph93%29.83 "Hg2 mi
9:50 AM37 °FFog.21 mph93%29.83 "Hg6 mi
9:20 AM37 °FFog.20 mph93%29.83 "Hg3 mi
8:50 AM37 °FLight rain. Low clouds.18 mph93%29.86 "Hg4 mi
8:20 AM37 °FLight rain. Low clouds.20 mph93%29.89 "Hg4 mi
7:50 AM37 °FLight rain. Mostly cloudy.18 mph93%29.89 "Hg2 mi
7:20 AM37 °FLight rain. Low clouds.18 mph93%29.89 "Hg2 mi
6:50 AM37 °FFog.18 mph93%29.92 "Hg4 mi
6:20 AM37 °FFog.17 mph93%29.92 "Hg2 mi
5:50 AM37 °FFog.17 mph93%29.95 "Hg3 mi
5:20 AM36 °FFog.15 mph100%29.95 "Hg2 mi
4:50 AM36 °FFog.15 mph100%29.98 "Hg2 mi
4:20 AM37 °FFog.14 mph93%29.98 "Hg4 mi
3:50 AM37 °FFog.14 mph93%30.01 "Hg2 mi
3:20 AM37 °FFog.12 mph93%30.01 "Hg3 mi
2:20 AM36 °FFog.10 mph100%30.04 "Hg4 mi
1:50 AM36 °FFog.9 mph100%30.04 "Hg3 mi
12:50 AM36 °FFog.10 mph93%30.07 "Hg2 mi
12:20 AM36 °FFog.10 mph93%30.07 "Hg3 mi
11:50 PM
Jan 25
32 °FMostly cloudy.5 mph93%30.09 "HgN/A
11:20 PM28 °FPassing clouds.3 mph93%30.09 "HgN/A
10:20 PM28 °FOvercast.5 mph93%30.12 "Hg5 mi
9:50 PM23 °FClear.3 mph93%30.12 "Hg10 mi
9:20 PM23 °FClear.1 mph93%30.12 "Hg10 mi
8:50 PM23 °FClear.No wind93%30.15 "Hg10 mi
8:20 PM21 °FClear.1 mph93%30.15 "Hg10 mi
Weather by CustomWeather, © 2014

See weather overviewHow to use our weather pages